EW6078 Weather Reports


Display with metric or nautical units.
time (UTC)temp
F
wind
direction
speed
MPH
gust
MPH
rain 1hr
in
rain 24hr
in
rain mn
in
humidity
%
barometer
mb
20260506044008 57 310 0.0 0.0 0.00 0.00 0.00 56 1017.2
20260506043508 58 310 0.0 0.0 0.00 0.00 0.00 56 1017.2
20260506043022 58 310 0.0 0.0 0.00 0.00 0.00 54 1017.2
20260506042506 58 310 0.0 0.0 0.00 0.00 0.00 54 1017.2
20260506042010 59 310 0.0 0.0 0.00 0.00 0.00 53 1017.1
20260506041525 59 310 0.0 0.0 0.00 0.00 0.00 51 1017.1
20260506041007 60 310 0.0 0.0 0.00 0.00 0.00 50 1017.0
20260506040511 60 315 0.0 0.0 0.00 0.00 0.00 49 1016.9
20260506040026 60 283 0.0 0.0 0.00 0.00 0.00 46 1016.8
20260506035508 61 283 0.0 0.0 0.00 0.00 0.00 44 1016.8
20260506035012 61 283 0.0 0.0 0.00 0.00 0.00 42 1016.7
20260506034528 62 295 0.0 0.0 0.00 0.00 0.00 39 1016.6
20260506034010 62 295 0.0 0.0 0.00 0.00 0.00 38 1016.5
20260506033507 63 295 0.0 0.0 0.00 0.00 0.00 38 1016.4
20260506033021 63 300 0.0 0.0 0.00 0.00 0.00 37 1016.4
20260506032506 64 334 0.0 0.0 0.00 0.00 0.00 36 1016.4
20260506032011 64 315 0.0 0.0 0.00 0.00 0.00 35 1016.3
20260506031523 65 315 0.0 0.0 0.00 0.00 0.00 35 1016.2
20260506031008 65 302 0.0 0.0 0.00 0.00 0.00 34 1016.2
20260506030502 66 352 0.0 0.0 0.00 0.00 0.00 34 1016.1
20260506030006 66 341 0.0 0.0 0.00 0.00 0.00 35 1016.1
20260506025508 66 347 0.0 0.0 0.00 0.00 0.00 35 1016.0
20260506025004 67 309 0.0 0.0 0.00 0.00 0.00 36 1015.9
20260506024510 67 9 0.0 0.0 0.00 0.00 0.00 37 1015.8
20260506024004 67 321 0.0 0.0 0.00 0.00 0.00 40 1015.8
20260506023506 67 320 0.0 0.0 0.00 0.00 0.00 39 1015.8
20260506023016 67 319 0.0 0.0 0.00 0.00 0.00 38 1015.8
20260506022508 67 321 0.0 0.0 0.00 0.00 0.00 39 1015.8
20260506022006 68 352 0.0 0.0 0.00 0.00 0.00 39 1015.8
20260506021522 68 360 0.0 0.0 0.00 0.00 0.00 39 1015.7
20260506021008 68 338 0.0 0.0 0.00 0.00 0.00 38 1015.6
20260506020507 68 9 0.0 0.0 0.00 0.00 0.00 39 1015.6
20260506020004 68 327 0.0 0.0 0.00 0.00 0.00 38 1015.5
20260506015505 68 327 0.0 0.0 0.00 0.00 0.00 38 1015.5
20260506015005 68 314 0.0 0.0 0.00 0.00 0.00 39 1015.6
20260506014509 68 26 0.0 0.0 0.00 0.00 0.00 40 1015.5
20260506014004 69 9 0.0 0.0 0.00 0.00 0.00 41 1015.4
20260506013507 69 339 0.0 0.0 0.00 0.00 0.00 40 1015.2
20260506013016 69 328 0.0 0.0 0.00 0.00 0.00 40 1015.3
20260506012504 69 346 0.0 0.0 0.00 0.00 0.00 40 1015.4
20260506012004 69 297 0.0 0.0 0.00 0.00 0.00 41 1015.3
20260506011525 69 327 0.0 0.0 0.00 0.00 0.00 40 1015.3
20260506011007 69 323 0.0 0.0 0.00 0.00 0.00 39 1015.2
20260506010507 69 351 0.0 0.0 0.00 0.00 0.00 40 1015.1
20260506010025 69 329 0.0 0.0 0.00 0.00 0.00 39 1015.1
20260506005512 70 21 0.0 0.0 0.00 0.00 0.00 38 1015.1
20260506005002 70 327 0.0 0.0 0.00 0.00 0.00 36 1015.1
20260506004519 71 170 0.0 0.0 0.00 0.00 0.00 36 1014.8
20260506004004 71 336 0.0 0.0 0.00 0.00 0.00 35 1014.9
20260506003504 72 322 0.0 0.0 0.00 0.00 0.00 35 1014.8
20260506003012 72 348 0.0 0.0 0.00 0.00 0.00 34 1014.7
20260506002507 72 342 0.0 0.0 0.00 0.00 0.00 34 1014.5
20260506002004 72 281 0.0 0.0 0.00 0.00 0.00 35 1014.5
20260506001516 72 53 0.0 0.0 0.00 0.00 0.00 37 1014.5
20260506001007 72 352 0.0 0.0 0.00 0.00 0.00 35 1014.5
20260506000507 73 340 0.0 0.0 0.00 0.00 0.00 35 1014.5
20260506000034 73 282 0.0 0.0 0.00 0.00 0.00 33 1014.5
20260505235506 73 118 0.0 0.0 0.00 0.00 0.00 33 1014.5
20260505235007 74 9 0.0 0.0 0.00 0.00 0.00 33 1014.4
20260505234526 73 351 0.0 0.0 0.00 0.00 0.00 35 1014.5
20260505234008 72 342 0.0 0.0 0.00 0.00 0.00 33 1014.6
20260505233505 72 325 0.0 0.0 0.00 0.00 0.00 33 1014.5
20260505233007 73 317 0.0 0.0 0.00 0.00 0.00 33 1014.4
20260505232504 73 34 0.0 0.0 0.00 0.00 0.00 35 1014.5
20260505232004 73 337 0.0 0.0 0.00 0.00 0.00 33 1014.5
20260505231516 74 22 0.0 0.0 0.00 0.00 0.00 32 1014.5
20260505231003 74 21 0.0 0.0 0.00 0.00 0.00 31 1014.4
20260505230506 74 324 0.0 0.0 0.00 0.00 0.00 34 1014.4
20260505230032 72 360 0.0 0.0 0.00 0.00 0.00 34 1014.5
20260505225508 72 351 0.0 0.0 0.00 0.00 0.00 33 1014.5
20260505225009 73 114 0.0 0.0 0.00 0.00 0.00 34 1014.5
20260505224524 73 334 0.0 0.0 0.00 0.00 0.00 32 1014.5
20260505224009 74 19 0.0 0.0 0.00 0.00 0.00 32 1014.6
20260505223509 75 331 0.0 0.0 0.00 0.00 0.00 31 1014.7
20260505223034 76 351 0.0 0.0 0.00 0.00 0.00 30 1014.6
20260505222511 76 31 0.0 0.0 0.00 0.00 0.00 32 1014.6
20260505222005 76 347 0.0 0.0 0.00 0.00 0.00 30 1014.7
20260505221512 75 346 0.0 0.0 0.00 0.00 0.00 30 1014.7
20260505221004 75 288 0.0 0.0 0.00 0.00 0.00 31 1014.6
20260505220503 75 289 0.0 0.0 0.00 0.00 0.00 30 1014.7
20260505220018 75 344 0.0 0.0 0.00 0.00 0.00 32 1014.7
20260505215506 76 315 0.0 0.0 0.00 0.00 0.00 32 1014.7
20260505215006 76 348 0.0 0.0 0.00 0.00 0.00 31 1014.7
20260505214524 77 286 0.0 0.0 0.00 0.00 0.00 30 1014.6
20260505214011 77 158 0.0 0.0 0.00 0.00 0.00 31 1014.6
20260505213507 78 13 0.0 0.0 0.00 0.00 0.00 31 1014.7
20260505213028 77 19 0.0 0.0 0.00 0.00 0.00 32 1014.6
20260505212509 77 351 0.0 0.0 0.00 0.00 0.00 32 1014.7
20260505212013 77 351 0.0 0.0 0.00 0.00 0.00 30 1014.7
20260505211536 77 103 0.0 0.0 0.00 0.00 0.00 31 1014.7
20260505211005 77 300 0.0 0.0 0.00 0.00 0.00 30 1014.5
20260505210504 77 306 0.0 0.0 0.00 0.00 0.00 29 1014.5
20260505210017 77 351 0.0 0.0 0.00 0.00 0.00 30 1014.6
20260505205508 76 11 0.0 0.0 0.00 0.00 0.00 32 1014.7
20260505205006 76 63 0.0 0.0 0.00 0.00 0.00 29 1014.7
20260505204521 76 34 0.0 0.0 0.00 0.00 0.00 30 1014.7
20260505204008 76 167 0.0 0.0 0.00 0.00 0.00 28 1014.6
20260505203508 77 235 0.0 0.0 0.00 0.00 0.00 30 1014.7
20260505203023 76 333 0.0 0.0 0.00 0.00 0.00 33 1014.8
20260505202508 76 24 0.0 0.0 0.00 0.00 0.00 28 1014.8
20260505202012 76 327 0.0 0.0 0.00 0.00 0.00 29 1014.7
20260505201531 76 33 0.0 0.0 0.00 0.00 0.00 30 1014.9
20260505201011 76 313 0.0 0.0 0.00 0.00 0.00 30 1014.9
20260505200508 76 94 0.0 0.0 0.00 0.00 0.00 31 1015.0
20260505200028 75 349 0.0 0.0 0.00 0.00 0.00 35 1014.9
20260505195504 76 352 0.0 0.0 0.00 0.00 0.00 31 1015.0
20260505195005 76 315 0.0 0.0 0.00 0.00 0.00 33 1014.9
20260505194520 75 205 0.0 0.0 0.00 0.00 0.00 37 1014.7
20260505194007 75 137 0.0 0.0 0.00 0.00 0.00 34 1014.9
20260505193509 75 57 0.0 0.0 0.00 0.00 0.00 33 1014.9
20260505193023 75 323 0.0 0.0 0.00 0.00 0.00 32 1014.8
20260505192507 75 20 0.0 0.0 0.00 0.00 0.00 32 1014.8
20260505192007 74 232 0.0 0.0 0.00 0.00 0.00 34 1014.7
20260505191533 74 12 0.0 0.0 0.00 0.00 0.00 35 1014.9
20260505191008 74 341 0.0 0.0 0.00 0.00 0.00 34 1014.9
20260505190510 74 360 0.0 0.0 0.00 0.00 0.00 35 1014.8
20260505190028 73 9 0.0 0.0 0.00 0.00 0.00 37 1014.8
20260505185513 73 9 0.0 0.0 0.00 0.00 0.00 35 1014.8
20260505185008 73 9 0.0 0.0 0.00 0.00 0.00 37 1014.9
20260505184537 73 342 0.0 0.0 0.00 0.00 0.00 36 1014.9
20260505184007 72 315 0.0 0.0 0.00 0.00 0.00 37 1014.8
20260505183505 72 17 0.0 0.0 0.00 0.00 0.00 38 1014.8
20260505183023 71 300 0.0 0.0 0.00 0.00 0.00 37 1015.0
20260505182507 71 336 0.0 0.0 0.00 0.00 0.00 39 1015.0
20260505182008 71 360 0.0 0.0 0.00 0.00 0.00 39 1014.8
20260505181527 70 247 0.0 0.0 0.00 0.00 0.00 39 1014.9
20260505181010 70 328 0.0 0.0 0.00 0.00 0.00 40 1014.9
20260505180508 69 337 0.0 0.0 0.00 0.00 0.00 41 1014.9
20260505180026 69 9 0.0 0.0 0.00 0.00 0.00 40 1015.0
20260505175503 68 18 0.0 0.0 0.00 0.00 0.00 39 1014.9
20260505175003 68 76 0.0 0.0 0.00 0.00 0.00 40 1015.0
20260505174518 67 352 0.0 0.0 0.00 0.00 0.00 42 1015.0
20260505174010 66 300 0.0 0.0 0.00 0.00 0.00 43 1015.0
20260505173507 66 88 0.0 0.0 0.00 0.00 0.00 41 1015.1
20260505173019 65 351 0.0 0.0 0.00 0.00 0.00 42 1015.1
20260505172510 65 28 0.0 0.0 0.00 0.00 0.00 43 1015.1
20260505172008 64 282 0.0 0.0 0.00 0.00 0.00 43 1015.1
20260505171532 64 349 0.0 9.0 0.00 0.00 0.00 42 1015.1
20260505171007 63 202 0.0 9.0 0.00 0.00 0.00 44 1015.1
20260505170508 63 23 2.0 3.0 0.00 0.00 0.00 44 1015.1
20260505170028 62 135 1.0 3.0 0.00 0.00 0.00 46 1015.1
20260505165507 61 312 2.0 3.0 0.00 0.00 0.00 50 1015.1
20260505165007 61 110 1.0 3.0 0.00 0.00 0.00 49 1015.1
20260505164512 61 26 1.0 3.0 0.00 0.00 0.00 54 1015.1
20260505164003 60 291 1.0 2.0 0.00 0.00 0.00 56 1015.1
20260505163506 59 275 1.0 2.0 0.00 0.00 0.00 58 1015.1
20260505163017 59 17 0.0 2.0 0.00 0.00 0.00 58 1015.2
20260505162507 58 224 1.0 2.0 0.00 0.00 0.00 62 1015.2
20260505162009 57 224 1.0 2.0 0.00 0.00 0.00 62 1015.2
20260505161523 56 205 1.0 3.0 0.00 0.00 0.00 64 1015.2
20260505161007 55 221 1.0 3.0 0.00 0.00 0.00 67 1015.2
20260505160511 54 105 0.0 2.0 0.00 0.00 0.00 69 1015.2
20260505153031 46 27 0.0 2.0 0.00 0.00 0.00 86 1015.3
20260505152507 45 44 1.0 3.0 0.00 0.00 0.00 88 1015.4
20260505152005 44 207 0.0 3.0 0.00 0.00 0.00 94 1015.3
20260505151521 43 167 0.0 3.0 0.00 0.00 0.00 94 1015.2
20260505151005 41 227 0.0 2.0 0.00 0.00 0.00 94 1015.2
20260505150503 41 227 0.0 2.0 0.00 0.00 0.00 94 1015.2
20260505140507 32 227 0.0 0.0 0.00 0.00 0.00 92 1014.8
20260505125011 32 227 0.0 0.0 0.00 0.00 0.00 89 1014.3
20260505124523 32 227 0.0 2.0 0.00 0.00 0.00 89 1014.3
20260505124003 32 227 0.0 2.0 0.00 0.00 0.00 89 1014.3
20260505123506 32 227 0.0 0.0 0.00 0.00 0.00 89 1014.3
20260505123006 32 227 0.0 0.0 0.00 0.00 0.00 89 1014.2
20260505122503 32 227 0.0 0.0 0.00 0.00 0.00 89 1014.3
20260505122008 32 227 0.0 2.0 0.00 0.00 0.00 89 1014.3
20260505121512 32 227 0.0 2.0 0.00 0.00 0.00 89 1014.2
20260505121004 33 227 0.0 0.0 0.00 0.00 0.00 89 1014.2
20260505120506 33 227 0.0 0.0 0.00 0.00 0.00 89 1014.1
20260505120016 33 227 0.0 2.0 0.00 0.00 0.00 89 1014.1
20260505115504 33 227 0.0 2.0 0.00 0.00 0.00 89 1014.0
20260505115007 33 227 0.0 2.0 0.00 0.00 0.00 88 1013.9
20260505114523 33 227 0.0 2.0 0.00 0.00 0.00 88 1013.8
20260505114006 33 227 0.0 0.0 0.00 0.00 0.00 88 1013.8
20260505113508 34 227 0.0 0.0 0.00 0.00 0.00 88 1013.8
20260505113026 34 227 0.0 0.0 0.00 0.00 0.00 88 1013.8
20260505112512 34 227 0.0 0.0 0.00 0.00 0.00 88 1013.9
20260505112003 34 227 0.0 0.0 0.00 0.00 0.00 88 1013.9
20260505111509 34 227 0.0 0.0 0.00 0.00 0.00 88 1013.9
20260505111004 34 227 0.0 0.0 0.00 0.00 0.00 88 1013.9
20260505110502 35 227 0.0 0.0 0.00 0.00 0.00 89 1013.8
20260505102007 36 227 0.0 2.0 0.00 0.00 0.00 87 1013.7
20260505101524 36 227 0.0 2.0 0.00 0.00 0.00 88 1013.7
20260505101009 37 227 0.0 0.0 0.00 0.00 0.00 87 1013.8
20260505100503 37 227 0.0 0.0 0.00 0.00 0.00 87 1013.7
20260505100013 37 227 0.0 0.0 0.00 0.00 0.00 87 1013.7
20260505095507 37 227 0.0 0.0 0.00 0.00 0.00 87 1013.7
20260505095007 37 227 0.0 0.0 0.00 0.00 0.00 87 1013.8
20260505094515 37 227 0.0 2.0 0.00 0.00 0.00 87 1013.7
20260505094006 38 227 0.0 2.0 0.00 0.00 0.00 87 1013.7
20260505093505 38 227 0.0 2.0 0.00 0.00 0.00 87 1013.8
20260505093022 38 227 0.0 2.0 0.00 0.00 0.00 86 1013.8
20260505092508 38 227 0.0 2.0 0.00 0.00 0.00 86 1013.8
20260505092010 38 227 0.0 2.0 0.00 0.00 0.00 86 1013.8
20260505091526 39 227 0.0 2.0 0.00 0.00 0.00 85 1013.8
20260505091007 39 227 0.0 2.0 0.00 0.00 0.00 85 1013.7
20260505090507 39 227 0.0 2.0 0.00 0.00 0.00 86 1013.8
20260505090027 39 227 0.0 2.0 0.00 0.00 0.00 85 1013.8
20260505085507 39 227 0.0 2.0 0.00 0.00 0.00 85 1013.8
20260505085003 40 227 0.0 2.0 0.00 0.00 0.00 84 1013.8
20260505084512 40 227 0.0 2.0 0.00 0.00 0.00 85 1013.8
20260505084002 40 227 0.0 2.0 0.00 0.00 0.00 84 1013.8
20260505083503 40 227 0.0 2.0 0.00 0.00 0.00 84 1013.8
20260505083015 41 227 0.0 2.0 0.00 0.00 0.00 84 1013.9
20260505082510 41 227 0.0 0.0 0.00 0.00 0.00 84 1014.0
20260505082006 41 227 0.0 0.0 0.00 0.00 0.00 84 1014.0
20260505081525 41 227 0.0 1.0 0.00 0.00 0.00 84 1014.1
20260505081007 41 227 0.0 2.0 0.00 0.00 0.00 84 1013.9
20260505080517 42 227 0.0 2.0 0.00 0.00 0.00 84 1013.9
20260505080025 42 227 0.0 2.0 0.00 0.00 0.00 83 1013.9
20260505075510 42 227 0.0 2.0 0.00 0.00 0.00 82 1013.9
20260505075009 42 227 0.0 2.0 0.00 0.00 0.00 82 1013.9
20260505074530 42 227 0.0 2.0 0.00 0.00 0.00 82 1013.9
20260505074011 43 227 0.0 2.0 0.00 0.00 0.00 82 1013.9
20260505073514 43 227 0.0 2.0 0.00 0.00 0.00 81 1013.8
20260505073015 43 227 0.0 2.0 0.00 0.00 0.00 81 1013.8
20260505072507 43 227 0.0 2.0 0.00 0.00 0.00 81 1013.8
20260505072007 43 227 0.0 2.0 0.00 0.00 0.00 81 1013.7
20260505071520 44 227 0.0 2.0 0.00 0.00 0.00 79 1013.7
20260505071006 44 227 0.0 2.0 0.00 0.00 0.00 79 1013.7
20260505070508 44 227 0.0 2.0 0.00 0.00 0.00 78 1013.6
20260505070022 44 227 0.0 1.0 0.00 0.00 0.00 78 1013.6
20260505065510 44 227 0.0 2.0 0.00 0.00 0.00 78 1013.5
20260505065007 45 227 0.0 2.0 0.00 0.00 0.00 77 1013.6
20260505064533 45 227 0.0 2.0 0.00 0.00 0.00 76 1013.6
20260505064012 45 227 0.0 2.0 0.00 0.00 0.00 76 1013.6
20260505063507 46 227 0.0 2.0 0.00 0.00 0.00 76 1013.5
20260505063025 46 227 0.0 2.0 0.00 0.00 0.00 76 1013.4
20260505062512 46 227 0.0 2.0 0.00 0.00 0.00 75 1013.5
20260505062012 47 227 0.0 2.0 0.00 0.00 0.00 75 1013.5
20260505061516 47 227 0.0 0.0 0.00 0.00 0.00 74 1013.5
20260505061003 47 227 0.0 0.0 0.00 0.00 0.00 74 1013.5
20260505060511 48 227 0.0 0.0 0.00 0.00 0.00 73 1013.5
20260505060022 48 227 0.0 0.0 0.00 0.00 0.00 73 1013.5
20260505055512 49 227 0.0 0.0 0.00 0.00 0.00 72 1013.5
20260505055011 49 227 0.0 0.0 0.00 0.00 0.00 71 1013.5
20260505054542 49 227 0.0 0.0 0.00 0.00 0.00 71 1013.5
20260505054011 50 227 0.0 0.0 0.00 0.00 0.00 70 1013.5
20260505053514 50 227 0.0 0.0 0.00 0.00 0.00 69 1013.5
20260505053027 51 227 0.0 0.0 0.00 0.00 0.00 69 1013.5
20260505052509 51 227 0.0 0.0 0.00 0.00 0.00 68 1013.5
20260505052003 52 227 0.0 0.0 0.00 0.00 0.00 66 1013.5
20260505051509 52 227 0.0 0.0 0.00 0.00 0.00 66 1013.4
20260505051004 53 227 0.0 0.0 0.00 0.00 0.00 66 1013.3
20260505050503 53 227 0.0 0.0 0.00 0.00 0.00 64 1013.3